Location: Maynard F. Jordan Observatory
(44.9000°N, 68.6700°W)
Time: 21:27:00
(UTC-04:00)

Cosmos 2297 Rocket - Visible Passes

Search period start: 29 April 2016 00:00
Search period end: 09 May 2016 00:00
Orbit: 838 x 845 km, 71.0° (Epoch: 28 April)

Date Brightness Start Highest point End Pass type
(mag) Time Alt. Az. Time Alt. Az. Time Alt. Az.
29 Apr 2.5 20:22:26 10° NNW 20:28:01 55° ENE 20:33:24 11° SE visible
29 Apr 4.0 22:07:16 10° NW 22:11:39 24° WSW 22:15:14 13° SSW visible
30 Apr 2.5 20:07:22 10° NNW 20:12:55 53° ENE 20:18:26 10° SE visible
30 Apr 4.0 21:52:06 10° NW 21:56:36 25° WSW 22:00:58 10° SSW visible
01 May 3.9 21:36:56 10° NW 21:41:33 26° WSW 21:46:08 10° SSW visible
02 May 3.9 21:21:47 10° NW 21:26:29 28° WSW 21:31:10 10° SSW visible
03 May 3.9 21:06:38 10° NW 21:11:26 29° WSW 21:16:12 10° SSW visible
04 May 3.9 20:51:30 10° NW 20:56:22 30° WSW 21:01:13 10° SSW visible
05 May 3.8 20:36:21 10° NW 20:41:19 32° WSW 20:46:14 10° SSW visible
06 May 3.8 20:21:13 10° NW 20:26:15 34° WSW 20:31:15 10° SSW visible
